Location: Carite
(10.3909°N, 67.0102°W)
Time: 02:05:55
(UTC+00:00)

SL-4 R/B - Pass Details

Date: 08 September 2024
Orbit: 407 x 587 km, 51.6° (Epoch: 06 October)

Event Time Altitude Azimuth Distance (km) Brightness Sun altitude
Rises 23:20:55 0° 307° (NW) 2,775 6.8 -12.6°
Reaches altitude 10° 23:23:28 10° 295° (WNW) 1,854 6.0 -13.2°
Maximum altitude 23:27:05 27° 236° (WSW) 1,064 4.0 -14.1°
Drops below altitude 10° 23:30:32 10° 177° (S) 1,768 4.5 -15.0°
Enters shadow 23:32:36 - 166° (SSE) 2,503 5.2 -15.5°
